Location: ???????
(55.7027°N, 37.3832°E)
Time: 19:45:14
(UTC+00:00)

Cosmos 1980 - Pass Details

Date: 14 April 2026
Orbit: 838 x 845 km, 71.0° (Epoch: 19 May)

Event Time Altitude Azimuth Distance (km) Brightness Sun altitude
Rises 18:15:54 0° 190° (S) 3,382 6.5 -13.2°
Reaches altitude 10° 18:18:24 10° 185° (S) 2,451 5.8 -13.5°
Maximum altitude 18:23:45 47° 113° (ESE) 1,100 3.9 -14.1°
Drops below altitude 10° 18:29:08 10° 41° (NE) 2,465 6.2 -14.6°
Sets 18:31:40 0° 36° (NE) 3,404 7.0 -14.9°
